Preview of NWS' New Version of Forecast
This preview is not operational and should not be used for support decisions.

Regional Weather Roundup (RWR)

Issued by National Weather Service (NWS)

                            
000
ASUS46 KSEW 210510
RWRWA 

WASHINGTON REGIONAL WEATHER ROUNDUP
NATIONAL WEATHER SERVICE SEATTLE WA
1000 PM PDT SAT JUL 20 2019

NOTE:"FAIR" INDICATES FEW OR NO CLOUDS BELOW 12,000 FEET WITH NO 
SIGNIFICANT WEATHER AND/OR OBSTRUCTIONS TO VISIBILITY.

WAZ507-509-555>559-210600-
SEATTLE, TACOMA, EVERETT, AND VICINITY
  
CITY           SKY/WX    TMP DP  RH WIND       PRES   REMARKS
EVERETT        CLEAR     66  49  54 N3        30.02R                  
BOEING FIELD   CLEAR     69  47  45 NW5       30.00R                  
RENTON         CLEAR     69  51  52 NW6       29.98S                  
SEATAC AIRPORT PTCLDY    70  47  43 N10       30.00S                  
JBLM-MCCHORD   CLEAR     68  49  52 NE6       29.99R                  
PUYALLUP       FAIR      63  52  67 CALM      30.00R                  
BREMERTON      CLEAR     65  48  54 NE6       30.01R                  
JBLM-FT LEWIS  NOT AVBL                                               
TACOMA NARROWS CLEAR     67  46  47 NE6       29.99S                  
$$
 
WAZ001-503-506-510-514-515-210600-
NORTH INTERIOR
  
CITY           SKY/WX    TMP DP  RH WIND       PRES   REMARKS
BELLINGHAM     CLEAR     61  52  72 CALM      29.99S                  
FRIDAY HARBOR  CLEAR     56  49  77 W5        30.01S                  
EASTSOUND      CLEAR     59  50  72 CALM      30.00R                  
PORT ANGELES   CLEAR     57  51  80 SW3       30.03S                  
EDIZ HOOK      FAIR      58  50  75 W7        30.02S                  
PORT TOWNSEND  FAIR      59  48  67 NW3       30.00R                  
NAS WHIDBEY    MOCLDY    58  51  78 W3        30.05R                  
ARLINGTON        N/A     64  52  64 NW6       30.00R                  
BURLINGTON     CLEAR     59  50  72 CALM      30.00R                  
$$
 
WAZ020-022-039-040-504-511-512-210600-
SOUTHWEST INTERIOR
  
CITY           SKY/WX    TMP DP  RH WIND       PRES   REMARKS
SHELTON        CLEAR     68  50  52 CALM      29.97R                  
OLYMPIA        CLEAR     67  47  48 N6        29.99R                  
CHEHALIS       FAIR      64  54  68 CALM      29.98R                  
KELSO          CLEAR     70  57  63 N3        29.96R                  
VANCOUVER      CLEAR     76  50  40 NW7       29.91R                  
SCAPPOOSE, OR  CLEAR     74  51  44 NW7       29.92R                  
PORTLAND, OR   PTCLDY    77  51  40 W9        29.91R                  
$$
 
WAZ021-516-517-210600-
WASHINGTON COAST
  
CITY           SKY/WX    TMP DP  RH WIND       PRES   REMARKS
FORKS          CLEAR     60  51  72 N7        30.01S                  
HOQUIAM        CLEAR     63  54  72 W5        30.00R                  
ASTORIA, OR    CLEAR     61  56  83 NW10      29.99R                  
$$
 
WAZ019-023-024-040-567>569-210600-
CASCADE MOUNTAINS AND COLUMBIA GORGE
  
CITY           SKY/WX    TMP DP  RH WIND       PRES   REMARKS
STAMPEDE PASS  CLEAR     59  39  47 CALM      30.13R                  
TROUTDALE, OR  CLEAR     74  53  48 W5        29.90R                  
HOOD RIVER, OR CLEAR     66  41  39 CALM      29.97R                  
THE DALLES, OR CLEAR     73  41  31 CALM      29.95R                  
$$

WAZ026-027-041>044-520-521-210600-
EAST SLOPES
  
CITY           SKY/WX    TMP DP  RH WIND       PRES   REMARKS
OMAK           CLEAR     71  42  35 N10       30.07R                  
WENATCHEE      CLEAR     69  40  34 SE10      30.02R                  
ELLENSBURG     CLEAR     64  41  42 SE5       30.04R                  
YAKIMA         CLEAR     63  41  44 W6        30.02R                  
SUNNYSIDE ARPT CLEAR     61  48  62 CALM      30.00  HAZE             
YAKIMA TC      FAIR      62  28  27 E3        30.02R                  
$$

WAZ028-034-035-210600-
COLUMBIA BASIN
  
CITY           SKY/WX    TMP DP  RH WIND       PRES   REMARKS
EPHRATA        CLEAR     73  35  25 NW7       30.02R                  
MOSES LAKE     CLEAR     71  39  31 NW8       30.02S                  
PASCO          CLEAR     62  52  69 N6        29.98R                  
RICHLAND ARPT  CLEAR     69  46  43 MISG      29.98S                  
HERMISTON, OR  CLEAR     66  44  45 E3        29.97R                  
$$

WAZ036>038-210600-
NORTHEAST WASHINGTON
  
CITY           SKY/WX    TMP DP  RH WIND       PRES   REMARKS
SPOKANE GEIGER PTCLDY    69  40  34 NE7       30.11R                  
SPOKANE FELTS  CLEAR     63  42  46 NE3       30.10R                  
FAIRCHILD AFB  CLEAR     65  39  38 NE8       30.11R                  
COEURDALENE,ID CLEAR     62  42  47 N8        30.13R                  
DEER PARK      CLEAR     55  42  61 NE3       30.12R                  
$$

WAZ029>033-210600-
SOUTHEAST WASHINGTON
  
CITY           SKY/WX    TMP DP  RH WIND       PRES   REMARKS
PULLMAN        CLEAR     57  39  51 CALM      30.11R                  
LEWISTON, ID   CLEAR     71  36  27 SE6       30.03R                  
WALLA WALLA    CLEAR     70  33  25 E12       29.99R                  
PENDLETON, OR  CLEAR     62  35  36 N5        30.00R                  
$$